Location: Peebles
(55.6412°N, 3.1714°W)
Time: 23:13:43
(UTC+01:00)

USA 281 - Pass Details

Date: 30 January 2022
Orbit: 1070 x 1089 km, 106.0° (Epoch: 25 March)

Event Time Altitude Azimuth Distance (km) Brightness Sun altitude
Rises 01:45:37 0° 30° (NNE) 3,907 6.8 -49.2°
Reaches altitude 10° 01:48:16 10° 36° (NE) 2,947 6.0 -49.0°
Enters shadow 01:49:49 18° 42° (NE) 2,420 5.4 -48.9°
